User: anonymous
Location: Unspecified
(0.0000°N, 0.0000°E)
Time: 04:16:11
(UTC+00:00)
Language:

A-11 Canister half - Orbit

View from above orbital plane
View from above orbital plane
View from above satellite
View from above satellite

Ground track
Ground track

The orbit data is extracted from the following two-line orbital elements,

1 00051U 60009C   14242.86167690 -.00000085  00000-0  00000+0 0  6379
2 00051 047.2140 058.6120 0103078 347.8096 152.6842 12.18236912405938
Epoch (UTC): 30 August 2014 20:40:48
Eccentricity: 0.0103078
inclination: 47.2140°
perigee height: 1518 km
apogee height: 1682 km
right ascension of ascending node: 58.6120°
argument of perigee: 347.8096°
revolutions per day: 12.18236912
mean anomaly at epoch: 152.6842°
orbit number at epoch: 40593

The dashed part of the orbit path shows where the satellite is in the earth's shadow,  

DLR